Regional Weather Roundup
Issued by NWS

Home | Current Version | Previous Version | Text Only | Print | Product List | Glossary Off
Versions: 1 2 3 4 5 6 7 8 9 10 11 12 13 14 15 16 17 18 19 20 21 22 23 24 25 26 27 28 29 30 31 32 33 34 35 36 37 38 39 40 41 42 43 44 45 46 47 48 49 50

000
ASUS43 KDMX 220106
RWRIA

WEATHER ROUNDUP FOR IOWA
NATIONAL WEATHER SERVICE DES MOINES IA
800 PM CDT MON AUG 21 2017

NOTE: "FAIR" INDICATES FEW OR NO CLOUDS BELOW 12,000 FEET WITH NO
SIGNIFICANT WEATHER AND/OR OBSTRUCTIONS TO VISIBILITY.

* - THESE STATIONS ARE NOT NWS STATIONS...THUS NOT UNDER NWS
QUALITY CONTROL.  THEY ALSO DO NOT REPORT WEATHER SUCH
AS PRECIPITATION OR FOG.

IAZ001>003-012>014-020>022-031>034-043>046-220200-
   NORTHWEST IOWA

CITY           SKY/WX    TMP DP  RH WIND       PRES   REMARKS
CARROLL *      CLOUDY    68  64  88 S6        30.00R
CHEROKEE *     CLOUDY    64  64 100 NW5       30.00R
DENISON *      CLOUDY    68  63  83 NE8       30.01R
LE MARS *      CLOUDY   104 N/A N/A CALM      29.99R
ORANGE CITY *  CLOUDY    66  64  94 CALM      29.99S
SHELDON *      CLOUDY    64  63  94 CALM      29.97S
SIOUX CITY     LGT RAIN  66  66 100 SW5       29.97F
SPENCER        CLOUDY    65  63  93 W6        29.98R
STORM LAKE *   CLOUDY    64  63  94 SW7       29.98R
$$

IAZ055>058-069>071-079>083-090>094-220200-
   SOUTHWEST IOWA

CITY           SKY/WX    TMP DP  RH WIND       PRES   REMARKS
ATLANTIC *     MOCLDY    70  68  94 NE10      29.97R
AUDUBON *      MOCLDY    68  64  88 CALM      30.00S
CLARINDA *     MOCLDY    79  75  89 SE6       29.92F HX  82
COUNCIL BLFS * PTCLDY    73  70  88 NE14      29.93R
CRESTON *      CLOUDY    70  66  88 N14G23    30.00R
HARLAN  *      CLOUDY    70  66  88 NE8       30.00S
LAMONI         CLOUDY    74  71  91 CALM      29.96F
RED OAK *      CLOUDY    77  73  88 NE12      29.92S
SHENANDOAH *   PTCLDY    81  75  83 SE5       29.89F HX  86
$$

IAZ047>049-059>061-072>074-084-220200-
   CENTRAL IOWA

CITY           SKY/WX    TMP DP  RH WIND       PRES   REMARKS
AMES           CLOUDY    66  66 100 SE12      29.95F
ANKENY *       CLOUDY    66  64  94 SE7G13    29.97F
BOONE *        CLOUDY    66  64  94 S7        29.95R
CHARITON *     LGT RAIN  68  64  88 N18G31    30.01R
DES MOINES     TSTM      67  65  93 SE13      29.95F
GRINNELL*      RAIN      65  63  92 N6        30.00F
KNOXVILLE *    CLOUDY    68  63  83 NE13G20   29.98F
MARSHALLTOWN   LGT RAIN  66  65  96 E13       29.93F
NEWTON *       CLOUDY    64  64 100 SE8       30.00F
PELLA *        LGT RAIN  67  65  93 NW6       30.04S
PERRY *          N/A     66  65  97 S8        29.98R
$$

IAZ004>006-015-016-023>025-035-036-220200-
   NORTH CENTRAL IOWA

CITY           SKY/WX    TMP DP  RH WIND       PRES   REMARKS
ALGONA *       PTCLDY    64  64 100 S3        29.91F
CLARION *      CLOUDY    64  64 100 NE3       29.91R
ESTHERVILLE    CLOUDY    64  64 100 W7        29.95R
FORT DODGE *   PTCLDY    64  61  88 SW10      29.96R
FOREST CITY *    N/A     64  64 100 S6        29.89F
WEBSTER CITY * PTCLDY    64  63  94 S7        29.93R
IOWA FALLS *     N/A     65  64  97 E10       29.90F
$$

IAZ007>011-017>019-026>030-037>042-050>054-066-220200-
   NORTHEAST IOWA

CITY           SKY/WX    TMP DP  RH WIND       PRES   REMARKS
CEDAR RAPIDS   TSTM      71  69  93 NW23G33   29.99R FOG
CHARLES CITY * CLOUDY    66  66 100 SE8       29.88F
CLINTON *      CLOUDY    75  71  87 S7        29.97F
DECORAH *      RAIN      64  64 100 S7        29.92F
DUBUQUE        LGT RAIN  72  69  90 CALM      29.97S
MONTICELLO *   CLOUDY    72  72 100 CALM      29.95R
OELWEIN *      RAIN      66  66 100 E6        29.99F
WATERLOO       CLOUDY    65  64  97 E16       29.88F
$$

IAZ064-065-067-068-078-220200-
   EAST CENTRAL IOWA

CITY           SKY/WX    TMP DP  RH WIND       PRES   REMARKS
DAVENPORT      PTCLDY    74  69  85 S5        29.98F
IOWA CITY      CLOUDY    77  71  82 CALM      29.98R
MT. PLEASANT * CLOUDY    75  70  84 W6        29.98R
MUSCATINE *    MOCLDY    79  68  69 SW6       29.96R HX  81
QUAD CITIES    CLOUDY    76  70  82 S3        29.96S
$$

IAZ062-063-075>077-085>089-095>099-220200-
   SOUTHEAST IOWA

CITY           SKY/WX    TMP DP  RH WIND       PRES   REMARKS
BURLINGTON     CLOUDY    76  75  97 NE3       29.97R
FAIRFIELD *    CLOUDY    77  68  73 W13       29.99R
FORT MADISON * CLOUDY    75  73  94 SW5       29.97R
KEOKUK *       CLOUDY    75  73  94 SW10G17   29.94F
OSKALOOSA *    LGT RAIN  69  64  85 N9G24     30.03R
CENTERVILLE *    N/A     73  68  83 CALM      29.98R
OTTUMWA        LGT RAIN  77  70  79 NW14      30.01R
WASHINGTON *   CLOUDY    77  70  78 SW9       29.98R
$$

ABBREVIATIONS USED IN REMARKS
   TC - TEMPERATURES IN CELSIUS
  WCI - WIND CHILL INDEX
   HX - HEAT INDEX
  VSB - VISIBILITY
$$





USA.gov is the U.S. government's official web portal to all federal, state and local government web resources and services.